False Pass, AK

1:45 AM HDT on May 28, 2017 (GMT -0900)
False Pass

Weather History for PAKF - January, 2013

Change the Weather History Date:

Friday, January 11, 2013

  Actual Average (PACD) Record (PACD)
Temperature  
Mean Temperature 36 °F -  
Max Temperature 42 °F 33 °F 48 °F (1952)
Min Temperature 30 °F 24 °F 9 °F (2000)
Degree Days  
Heating Degree Days 29    
Moisture  
Dew Point 32 °F    
Average Humidity 85    
Maximum Humidity 100    
Minimum Humidity 61    
Precipitation  
Precipitation 0.04 in - - ()
Sea Level Pressure  
Sea Level Pressure 29.89 in    
Wind  
Wind Speed 9 mph (ESE)    
Max Wind Speed 24 mph    
Max Gust Speed 36 mph    
Visibility 8 miles    
Events Rain , Snow    
Averages and records for this station are not official NWS values.
T = Trace of Precipitation, MM = Missing Value Source: NWS Daily Summary

Daily Weather History Graph

Daily Weather History Graph

Search for Another Location

Airport or City:

Trip Planner

Search our weather history database for the weather conditions in past years. The results will help you decide how hot, cold, wet, or windy it might be!

Date:

Astronomy

Jan. 11, 2013 Rise Set
Actual Time 9:11 AM HST 4:52 PM HST
Civil Twilight 8:28 AM HST 5:35 PM HST
Nautical Twilight 7:42 AM HST 6:21 PM HST
Astronomical Twilight 6:58 AM HST 7:05 PM HST
Moon 8:45 AM HST (1/11) 5:37 PM HST (1/11)
Length of Visible Light 9h 07m
Length of Day
7h 40m
New Moon, 0% of the Moon is Illuminated
Jan 11
New Moon
Jan 18
First Quarter
Jan 26
Full
Feb 3
Last Quarter
Feb 9
New

Hourly Weather History & Observations

Time (HST) Temp. Windchill Dew Point Humidity Pressure Visibility Wind Dir Wind Speed Gust Speed Precip Events Conditions
12:01 AM 35.1 °F - 23.0 °F 61% 30.15 in 10.0 mi Calm Calm - N/A   Clear
1:01 AM 35.1 °F 31.0 °F 26.1 °F 70% 30.17 in 10.0 mi ESE 4.6 mph - N/A   Clear
3:01 AM 32.0 °F - 24.1 °F 73% 30.21 in 10.0 mi Calm Calm - N/A   Clear
4:01 AM 30.9 °F 26.2 °F 25.0 °F 79% 30.23 in 10.0 mi SSW 4.6 mph - N/A   Clear
5:01 AM 30.9 °F - 25.0 °F 79% 30.21 in 10.0 mi Calm Calm - N/A   Partly Cloudy
6:01 AM 33.1 °F 26.1 °F 27.0 °F 78% 30.20 in 10.0 mi SE 8.1 mph - N/A   Mostly Cloudy
8:01 AM 36.0 °F 28.5 °F 30.9 °F 82% 30.22 in 10.0 mi SSE 10.4 mph - N/A   Partly Cloudy
8:50 AM 35.6 °F 28.6 °F 32.0 °F 87% 29.93 in 10.0 mi SE 9.2 mph - N/A   Overcast
9:01 AM 36.0 °F 28.0 °F 30.9 °F 82% 30.22 in 10.0 mi SE 11.5 mph 17.3 mph N/A   Overcast
9:13 AM 35.6 °F 27.5 °F 32.0 °F 87% 29.93 in 10.0 mi South 11.5 mph 17.3 mph N/A   Mostly Cloudy
10:01 AM 37.0 °F 31.0 °F 30.9 °F 79% 30.20 in 10.0 mi SE 8.1 mph - N/A   Mostly Cloudy
10:50 AM 35.6 °F 29.9 °F 30.2 °F 81% 29.89 in 10.0 mi SE 6.9 mph - N/A   Overcast
11:01 AM 37.0 °F 29.8 °F 32.0 °F 82% 30.16 in 10.0 mi ESE 10.4 mph - N/A   Overcast
11:46 AM 37.4 °F 29.8 °F 33.8 °F 87% 29.86 in 10.0 mi ESE 11.5 mph 19.6 mph N/A   Overcast
12:01 PM 37.0 °F 28.5 °F 34.0 °F 89% 30.14 in 10.0 mi ESE 13.8 mph 19.6 mph N/A   Overcast
12:27 PM 37.4 °F 29.8 °F 33.8 °F 87% 29.83 in 10.0 mi ESE 11.5 mph 17.3 mph N/A   Overcast
12:54 PM 37.4 °F 28.9 °F 33.8 °F 87% 29.80 in 10.0 mi East 13.8 mph 18.4 mph N/A   Overcast
1:01 PM 37.0 °F 27.4 °F 34.0 °F 89% 30.08 in 10.0 mi East 17.3 mph 20.7 mph N/A   Overcast
2:01 PM 37.0 °F 25.6 °F 33.1 °F 86% 30.00 in 10.0 mi East 24.2 mph 32.2 mph 0.00 in   Overcast
3:01 PM 35.6 °F 23.7 °F 33.8 °F 93% 29.67 in 3.0 mi East 24.2 mph 34.5 mph 0.00 in Snow Light Snow
3:17 PM 35.6 °F 25.2 °F 32.0 °F 87% 29.65 in 3.0 mi East 18.4 mph 29.9 mph 0.01 in Snow Light Snow
3:31 PM 35.6 °F 23.7 °F 32.0 °F 87% 29.63 in 2.0 mi East 24.2 mph 35.7 mph 0.01 in Snow Light Snow
3:44 PM 33.8 °F 22.8 °F 33.8 °F 100% 29.62 in 1.8 mi East 18.4 mph 32.2 mph 0.02 in Snow Light Snow
9:31 PM 39.2 °F 31.2 °F 37.4 °F 93% 29.38 in 3.0 mi East 13.8 mph 26.5 mph 0.02 in Rain Light Rain
9:44 PM 39.2 °F 31.2 °F 37.4 °F 93% 29.37 in 5.0 mi East 13.8 mph 23.0 mph 0.03 in Rain Light Rain
10:01 PM 41.0 °F 33.1 °F 39.0 °F 93% 29.65 in 9.0 mi ESE 15.0 mph 24.2 mph 0.03 in Rain Light Rain
10:54 PM 42.8 °F 35.1 °F 39.2 °F 87% 29.34 in 8.0 mi ESE 16.1 mph 28.8 mph 0.01 in Rain Light Rain
11:01 PM 42.1 °F 33.9 °F 39.9 °F 92% 29.62 in 8.0 mi ESE 17.3 mph 28.8 mph 0.01 in Rain Light Rain
11:31 PM 42.8 °F 34.3 °F 39.2 °F 87% 29.35 in 9.0 mi ESE 19.6 mph 28.8 mph 0.01 in Rain Light Rain